When you browse on this site, cookies collect data to enhance your experience and personalize the content and advertising you see.
Visit our Privacy Policy to learn more. By continuing to use the site, you agree to this use of cookies and data.
  • In United Kingdom
  • List of Countries
  • For 7 days
  • Water Temperature
  • Weather Map
  • Weather Widgets
  • user-avatar
    Login

    Hourly Weather Hasselt

    Today, 22 August, Thursday

    Time Temperature Precipitation Wind Pressure Humidity
    00:00 +15°C° 0 mm 1 mps 766 mmHg 69%
    01:00 +14°C° 0 mm 1 mps 766 mmHg 70%
    02:00 +14°C° 0 mm 1 mps 765 mmHg 72%
    03:00 +14°C° 0 mm 1 mps 765 mmHg 73%
    04:00 +14°C° 0 mm 1 mps 765 mmHg 73%
    05:00 +15°C° 0 mm 1 mps 765 mmHg 73%
    06:00 +15°C° 0 mm 1 mps 765 mmHg 73%
    07:00 +18°C° 0 mm 1 mps 766 mmHg 66%
    08:00 +20°C° 0 mm 1 mps 766 mmHg 59%
    09:00 +23°C° 0 mm 1 mps 766 mmHg 52%
    10:00 +24°C° 0 mm 2 mps 766 mmHg 49%
    11:00 +25°C° 0 mm 2 mps 765 mmHg 46%
    12:00 +26°C° 0 mm 2 mps 765 mmHg 42%
    13:00 +26°C° 0 mm 2 mps 765 mmHg 41%
    14:00 +26°C° 0 mm 2 mps 765 mmHg 39%
    15:00 +27°C° 0 mm 2 mps 765 mmHg 38%
    16:00 +25°C° 0 mm 2 mps 765 mmHg 43%
    17:00 +24°C° 0 mm 1 mps 765 mmHg 49%
    18:00 +22°C° 0 mm 1 mps 764 mmHg 55%
    19:00 +21°C° 0 mm 1 mps 765 mmHg 60%
    20:00 +19°C° 0 mm 1 mps 765 mmHg 65%
    21:00 +18°C° 0 mm 1 mps 766 mmHg 70%
    22:00 +16°C° 0 mm 1 mps 766 mmHg 73%
    23:00 +16°C° 0 mm 1 mps 765 mmHg 75%

    Tomorrow, 23 August, Friday

    Time Temperature Precipitation Wind Pressure Humidity
    00:00 +15°C° 0 mm 1 mps 765 mmHg 78%
    01:00 +15°C° 0 mm 1 mps 765 mmHg 79%
    02:00 +15°C° 0 mm 1 mps 765 mmHg 80%
    03:00 +14°C° 0 mm 1 mps 765 mmHg 82%
    04:00 +15°C° 0 mm 1 mps 765 mmHg 80%
    05:00 +16°C° 0 mm 1 mps 765 mmHg 79%
    06:00 +16°C° 0 mm 1 mps 765 mmHg 78%
    07:00 +20°C° 0 mm 1 mps 765 mmHg 70%
    08:00 +22°C° 0 mm 1 mps 765 mmHg 62%
    09:00 +24°C° 0 mm 2 mps 765 mmHg 54%
    10:00 +25°C° 0 mm 2 mps 765 mmHg 50%
    11:00 +26°C° 0 mm 2 mps 764 mmHg 46%
    12:00 +27°C° 0 mm 2 mps 764 mmHg 41%
    13:00 +28°C° 0 mm 2 mps 764 mmHg 40%
    14:00 +28°C° 0 mm 2 mps 763 mmHg 39%
    15:00 +29°C° 0 mm 2 mps 763 mmHg 38%
    16:00 +27°C° 0 mm 2 mps 763 mmHg 45%
    17:00 +26°C° 0 mm 2 mps 763 mmHg 52%
    18:00 +24°C° 0 mm 2 mps 763 mmHg 58%
    19:00 +22°C° 0 mm 3 mps 763 mmHg 62%
    20:00 +20°C° 0 mm 3 mps 763 mmHg 66%
    21:00 +19°C° 0 mm 3 mps 763 mmHg 70%
    22:00 +18°C° 0 mm 2 mps 763 mmHg 72%
    23:00 +18°C° 0 mm 2 mps 763 mmHg 74%

    Day after tomorrow, 24 August, Saturday

    Time Temperature Precipitation Wind Pressure Humidity
    00:00 +17°C° 0 mm 2 mps 763 mmHg 76%
    01:00 +17°C° 0 mm 2 mps 762 mmHg 77%
    02:00 +16°C° 0 mm 1 mps 762 mmHg 77%
    03:00 +16°C° 0 mm 1 mps 762 mmHg 78%
    04:00 +18°C° 0 mm 1 mps 762 mmHg 75%
    05:00 +18°C° 0 mm 1 mps 762 mmHg 73%
    06:00 +19°C° 0 mm 1 mps 761 mmHg 71%
    07:00 +21°C° 0 mm 1 mps 762 mmHg 63%
    08:00 +24°C° 0 mm 2 mps 762 mmHg 56%
    09:00 +26°C° 0 mm 2 mps 762 mmHg 48%
    10:00 +27°C° 0 mm 2 mps 761 mmHg 44%
    11:00 +28°C° 0 mm 2 mps 761 mmHg 40%
    12:00 +30°C° 0 mm 3 mps 761 mmHg 36%
    13:00 +30°C° 0 mm 3 mps 760 mmHg 36%
    14:00 +30°C° 0 mm 3 mps 760 mmHg 36%
    15:00 +30°C° 0 mm 2 mps 760 mmHg 36%
    16:00 +29°C° 0 mm 2 mps 760 mmHg 42%
    17:00 +27°C° 0 mm 2 mps 759 mmHg 47%
    18:00 +26°C° 0 mm 2 mps 759 mmHg 53%
    19:00 +24°C° 0 mm 2 mps 759 mmHg 56%
    20:00 +23°C° 0 mm 2 mps 760 mmHg 59%
    21:00 +21°C° 0 mm 2 mps 760 mmHg 61%
    22:00 +20°C° 0 mm 2 mps 760 mmHg 63%
    23:00 +20°C° 0 mm 1 mps 760 mmHg 64%

    25 August, Sunday

    Time Temperature Precipitation Wind Pressure Humidity
    00:00 +20°C° 0 mm 1 mps 760 mmHg 66%
    01:00 +19°C° 0 mm 1 mps 760 mmHg 65%
    02:00 +19°C° 0 mm 1 mps 759 mmHg 65%
    03:00 +19°C° 0 mm 1 mps 759 mmHg 65%
    04:00 +19°C° 0 mm 1 mps 759 mmHg 65%
    05:00 +20°C° 0 mm 1 mps 759 mmHg 65%
    06:00 +20°C° 0 mm 1 mps 760 mmHg 65%
    07:00 +23°C° 0 mm 1 mps 760 mmHg 60%
    08:00 +25°C° 0 mm 1 mps 760 mmHg 54%
    09:00 +28°C° 0 mm 1 mps 760 mmHg 48%
    10:00 +29°C° 0 mm 1 mps 760 mmHg 46%
    11:00 +30°C° 0 mm 1 mps 760 mmHg 44%
    12:00 +31°C° 0 mm 1 mps 760 mmHg 41%
    13:00 +32°C° 0 mm 1 mps 760 mmHg 40%
    14:00 +32°C° 0 mm 1 mps 760 mmHg 39%
    15:00 +32°C° 0 mm 1 mps 759 mmHg 38%
    16:00 +30°C° 0 mm 1 mps 760 mmHg 44%
    17:00 +29°C° 0 mm 2 mps 760 mmHg 50%
    18:00 +27°C° 0 mm 2 mps 760 mmHg 57%
    19:00 +26°C° 0 mm 2 mps 760 mmHg 59%
    20:00 +25°C° 0 mm 2 mps 760 mmHg 62%
    21:00 +23°C° 0 mm 2 mps 761 mmHg 64%
    22:00 +23°C° 0 mm 1 mps 761 mmHg 66%
    23:00 +22°C° 0 mm 1 mps 761 mmHg 67%

    26 August, Monday

    Time Temperature Precipitation Wind Pressure Humidity
    00:00 +21°C° 0 mm 1 mps 761 mmHg 69%
    01:00 +21°C° 0 mm 1 mps 761 mmHg 71%
    02:00 +19°C° 0 mm 0 mps 761 mmHg 72%
    03:00 +18°C° 0 mm 0 mps 760 mmHg 74%
    04:00 +19°C° 0 mm 0 mps 761 mmHg 74%
    05:00 +19°C° 0 mm 0 mps 761 mmHg 73%
    06:00 +20°C° 0 mm 0 mps 761 mmHg 73%
    07:00 +22°C° 0 mm 0 mps 761 mmHg 65%
    08:00 +26°C° 0 mm 1 mps 761 mmHg 58%
    09:00 +29°C° 0 mm 1 mps 762 mmHg 51%
    10:00 +30°C° 0 mm 1 mps 761 mmHg 46%
    11:00 +31°C° 0 mm 1 mps 761 mmHg 41%
    12:00 +32°C° 0 mm 1 mps 761 mmHg 36%
    13:00 +32°C° 0 mm 2 mps 761 mmHg 35%
    14:00 +32°C° 0 mm 2 mps 761 mmHg 34%
    15:00 +32°C° 0 mm 2 mps 760 mmHg 32%
    16:00 +31°C° 0 mm 2 mps 760 mmHg 40%
    17:00 +29°C° 0 mm 2 mps 760 mmHg 47%
    18:00 +27°C° 0 mm 2 mps 760 mmHg 54%
    19:00 +26°C° 0 mm 2 mps 760 mmHg 56%
    20:00 +25°C° 0 mm 2 mps 761 mmHg 59%
    21:00 +23°C° 0 mm 2 mps 761 mmHg 62%
    22:00 +23°C° 0 mm 2 mps 761 mmHg 62%
    23:00 +21°C° 0 mm 2 mps 761 mmHg 62%

    27 August, Tuesday

    Time Temperature Precipitation Wind Pressure Humidity
    00:00 +22°C° 0 mm 1 mps 761 mmHg 62%
    01:00 +21°C° 0 mm 1 mps 760 mmHg 63%
    02:00 +21°C° 0 mm 1 mps 760 mmHg 65%
    03:00 +20°C° 0 mm 1 mps 760 mmHg 67%
    04:00 +21°C° 0 mm 1 mps 760 mmHg 67%
    05:00 +21°C° 0 mm 1 mps 760 mmHg 68%
    06:00 +21°C° 0 mm 1 mps 760 mmHg 69%
    07:00 +24°C° 0 mm 1 mps 760 mmHg 62%
    08:00 +26°C° 0 mm 1 mps 760 mmHg 55%
    09:00 +28°C° 0 mm 2 mps 759 mmHg 49%
    10:00 +30°C° 0 mm 2 mps 759 mmHg 44%
    11:00 +31°C° 0 mm 2 mps 759 mmHg 40%
    12:00 +32°C° 0 mm 2 mps 758 mmHg 36%
    13:00 +32°C° 0 mm 2 mps 758 mmHg 35%
    14:00 +34°C° 0 mm 2 mps 757 mmHg 34%
    15:00 +34°C° 0 mm 2 mps 757 mmHg 33%
    16:00 +31°C° 0 mm 2 mps 757 mmHg 39%
    17:00 +29°C° 0 mm 2 mps 757 mmHg 45%
    18:00 +28°C° 0 mm 2 mps 757 mmHg 51%
    19:00 +27°C° 0 mm 2 mps 757 mmHg 53%
    20:00 +25°C° 0 mm 2 mps 757 mmHg 55%
    21:00 +24°C° 0 mm 2 mps 757 mmHg 58%
    22:00 +24°C° 0 mm 2 mps 757 mmHg 60%
    23:00 +23°C° 0 mm 1 mps 756 mmHg 62%
    Show more